This demonstration page uses our WeatherBlox Daily Observations layout. Learn more.

Left ArrowRight Arrow

39.92423, -83.80882

Hourly Observations for June 7, 2015

Temp ( °F °C ) Dew Point ( °F °C ) Humidity (%) Winds ( mph kmh ) Pressure ( in mb ) Visibility ( mi km ) Precip ( " mm )
12:56 am 00:56 Clear 61 16.1 58 14.4 90 90 E 5 7 30.04 1017 9 14.48406 0 0
1:56 am 01:56 Clear 59 15 57 13.8 93 93 E 3 6 30.02 1017 8 12.87472 0 0
2:56 am 02:56 Clear 56 13.3 56 13.3 100 100 E 6 9 30.02 1017 7 11.26538 0 0
3:56 am 03:56 Clear 56 13.3 56 13.3 100 100 Calm 30.02 1017 7 11.26538 0 0
4:56 am 04:56 Clear with Mist and Fog 55 12.7 55 12.7 100 100 ENE 3 6 30.02 1017 4 6.43736 0 0
5:35 am 05:35 Mostly Cloudy with Mist and Fog 55 13 55 13 100 100 ESE 3 6 30.03 1017 4 6.43736 0 0
5:56 am 05:56 Cloudy with Mist and Fog 55 12.7 55 12.7 100 100 E 3 6 30.02 1017 5 8.0467 0 0
6:56 am 06:56 Cloudy with Mist and Fog 60 15.5 60 15.5 100 100 S 5 7 30.02 1017 3 4.82802 0 0
7:56 am 07:56 Cloudy with Mist and Fog 63 17.2 62 16.6 96 96 SSE 3 6 30.01 1016 4 6.43736 0 0
8:34 am 08:34 Partly Cloudy with Mist and Fog 66 19 64 18 94 94 S 7 11 30 1016 5 8.0467 0 0
8:56 am 08:56 Hazy 69 20.5 64 17.7 84 84 SSW 8 13 30 1016 6 9.65604 0 0
9:56 am 09:56 Hazy 73 22.7 65 18.3 76 76 SSW 13 20 29.99 1016 5 8.0467 0 0
10:56 am 10:56 Sunny 76 24.4 65 18.3 69 69 SSW 10 17 29.96 1015 7 11.26538 0 0
11:56 am 11:56 Sunny 79 26.1 65 18.3 62 62 SW 13 20 29.97 1015 7 11.26538 0 0
12:56 pm 12:56 Sunny 82 27.7 65 18.3 57 57 SW 16 26 29.96 1015 7 11.26538 0 0
1:56 pm 13:56 Sunny 84 28.8 66 18.8 55 55 SW 16 26 29.94 1014 8 12.87472 0 0
2:56 pm 14:56 Mostly Cloudy 84 28.8 67 19.4 57 57 SSW 12 19 29.93 1014 7 11.26538 0 0
3:56 pm 15:56 Mostly Sunny 85 29.4 67 19.4 55 55 SW 14 22 29.91 1013 8 12.87472 0 0
4:56 pm 16:56 Sunny 87 30.5 68 20 53 53 SSW 15 24 29.89 1012 8 12.87472 0 0
5:56 pm 17:56 Sunny 85 29.4 68 20 57 57 SSW 9 15 29.88 1012 8 12.87472 0 0
6:56 pm 18:56 Sunny 86 30 68 20 55 55 SSW 12 19 29.84 1011 8 12.87472 0 0
7:56 pm 19:56 Mostly Sunny 84 28.8 68 20 59 59 SSW 8 13 29.85 1011 8 12.87472 0 0
8:56 pm 20:56 Sunny 82 27.7 67 19.4 61 61 SSW 9 15 29.84 1011 8 12.87472 0 0
9:56 pm 21:56 Clear 80 26.6 67 19.4 65 65 SSW 9 15 29.85 1011 9 14.48406 0 0
10:56 pm 22:56 Clear 78 25.5 66 18.8 67 67 SSW 10 17 29.85 1011 9 14.48406 0 0
11:56 pm 23:56 Mostly Cloudy 78 25.5 62 16.6 58 58 WNW 15 24 29.89 1012 9 14.48406 0 0

Powered by AerisWeather